Simultaneous Nadir Overpasses (SNOs) Predictions

Prediction of SNOs between AQUA and NPP Satellite Orbit:

Table of predicted SNOs for the next 14.0 days since TLE Epoch: 5/16/2019
Index Date (AQUA) Time (AQUA) Lat,Lon (AQUA) SZA (AQUA ) Date (NPP) Time (NPP) Lat,Lon (NPP) SZA (NPP ) Distance(km) Time Diff (sec)
1 05/17/2019 06:21:51 -75.92, 143.33 101.75 05/17/2019 06:21:32 -75.93, 143.41 101.75 2.27 19
2 05/17/2019 07:11:01 76.70, -46.50 77.34 05/17/2019 07:11:59 76.70, -46.50 77.29 0.08 58
3 05/19/2019 21:49:07 75.15, 89.39 78.58 05/19/2019 21:47:59 75.16, 89.46 78.62 2.23 68
4 05/19/2019 22:38:16 -76.05,-100.38 102.47 05/19/2019 22:38:26 -76.05,-100.41 102.47 0.99 10
5 05/22/2019 14:05:29 75.38,-154.12 77.80 05/22/2019 14:04:50 75.38,-154.12 77.83 0.21 39
6 05/22/2019 14:54:31 -76.61, 17.33 103.65 05/22/2019 14:55:09 -76.62, 17.41 103.70 2.23 38
7 05/25/2019 06:21:50 75.69, -37.33 76.96 05/25/2019 06:21:40 75.69, -37.40 76.98 1.94 10
8 05/25/2019 07:10:55 -76.78, 133.79 104.33 05/25/2019 07:12:02 -76.78, 133.79 104.38 0.04 67
9 05/27/2019 21:49:00 -75.29, -90.24 103.01 05/27/2019 21:48:01 -75.30, -90.15 102.99 2.80 59
10 05/27/2019 22:38:03 76.39, 80.71 75.71 05/27/2019 22:38:21 76.40, 80.81 75.67 2.73 18
11 05/30/2019 14:05:21 -75.60, 26.51 103.76 05/30/2019 14:04:51 -75.60, 26.55 103.74 1.21 30




NCC Satellite Simultaneous Nadir Overpasses (SNOs) Prediction Service
